User: anonymous   Login
Location: Newark
(58.8333°N, 23.5833°E)
Time: 07:55:01
(UTC+00:00)
Language:

XW-2C - Orbit

View from above orbital plane
View from above orbital plane
View from above satellite
View from above satellite

Ground track
Ground track

The orbit data is extracted from the following two-line orbital elements,

1 40906U 15049H   19344.07805644  .00000432  00000-0  26032-4 0  9999
2 40906  97.4727 343.3316 0013745 319.8285 110.4384 15.15852561233419
Epoch (UTC): 10 December 2019 01:52:24
Eccentricity: 0.0013745
inclination: 97.4727°
perigee height: 509 km
apogee height: 528 km
right ascension of ascending node: 343.3316°
argument of perigee: 319.8285°
revolutions per day: 15.15852561
mean anomaly at epoch: 110.4384°
orbit number at epoch: 23341

The dashed part of the orbit path shows where the satellite is in the earth's shadow,  

DLR